Orbital Elements
Epoch 2000 May 16.0 TT = JDT 2451680.5
T 2000 May 11.82328 TT Muraoka
q 2.1654916 (2000.0) P Q
n 0.13944802 Peri. 23.34830 +0.97698355 +0.12323259
a 3.6829386 Node 328.01009 -0.20680061 +0.74734660
e 0.4120207 Incl. 19.18783 +0.05231303 +0.65290641
P 7.07
>From 71 observations 1964-1993, mean residual 0".84. Nongravitational
parameters A1 = +0.12 +/- 0.04, A2 = +0.0305 +/- 0.0011
|